Find Starlink 37723

NORAD ID: 69128 Int'l Des: 2026-110 Owner: SPXS Country: US Constellation: starlink operational
LEOCIRCULARRETROGRADE

当前视图

正在加载3D地球...

About Starlink 37723

Starlink 37723 (NORAD 69128) is a starlink constellation satellite (v2 mini) launched May 20, 2026 by SPXS of US. It operates in LEO, CIRCULAR, RETROGRADE orbit with a mass of 575.00 kg.

即将过境

Passes for default location (London). Set your location on the main map for personalized predictions.

高度历史

Loading altitude history...

两行轨道根数

1 69128U 26110E 26224.15721068 .00010188 00000-0 31763-3 0 9993
2 69128 97.2848 59.7252 0001493 89.0353 271.1061 15.33427789 14182
Epoch: Aug 12, 2026 • Age: 5 hours

当前状态

高度 469.2 km
远地点 / 近地点 N/A
速度 7.63 km/s
星下点 31.54°N, 146.85°E
发射日期 May 20, 2026
运行时间 0.2 years
类型 internet

技术详情

分类 Payload
质量 575.00 kg
干质量 530.00 kg
总质量 575.00 kg
长度 0.30 m
直径 4.10 m
跨度 29.00 m
形状 Box + pan
制造商 SPXS
平台类型 Starlink V2MO
阶段状态 In Orbit
所有者/国家 SPXS/US

Most Searched